Year,Month,Day,Hour,Minute,Value (Times are PST for temperature in C)
2012,09,17,00,00,19.10
2012,09,17,00,01,19.00
2012,09,17,00,02,18.90
2012,09,17,00,03,18.80
2012,09,17,00,04,18.80
2012,09,17,00,05,18.80
2012,09,17,00,06,18.80
2012,09,17,00,07,18.80
2012,09,17,00,08,18.80
2012,09,17,00,09,18.90
2012,09,17,00,10,18.90
2012,09,17,00,11,19.00
2012,09,17,00,12,19.20
2012,09,17,00,13,19.50
2012,09,17,00,14,19.70
2012,09,17,00,15,19.90
2012,09,17,00,16,20.10
2012,09,17,00,17,20.30
2012,09,17,00,18,20.50
2012,09,17,00,19,20.60
2012,09,17,00,20,20.80
2012,09,17,00,21,20.80
2012,09,17,00,22,20.90
2012,09,17,00,23,20.90
2012,09,17,00,24,21.00
2012,09,17,00,25,21.10
2012,09,17,00,26,21.10
2012,09,17,00,27,21.10
2012,09,17,00,28,21.10
2012,09,17,00,29,21.20
2012,09,17,00,30,21.20
2012,09,17,00,31,21.10
2012,09,17,00,32,21.00
2012,09,17,00,33,20.90
2012,09,17,00,34,20.80
2012,09,17,00,35,20.60
2012,09,17,00,36,20.50
2012,09,17,00,37,20.30
2012,09,17,00,38,20.00
2012,09,17,00,39,19.80
2012,09,17,00,40,19.60
2012,09,17,00,41,19.40
2012,09,17,00,42,19.30
2012,09,17,00,43,19.10
2012,09,17,00,44,19.00
2012,09,17,00,45,18.90
2012,09,17,00,46,18.80
2012,09,17,00,47,18.70
2012,09,17,00,48,18.70
2012,09,17,00,49,18.60
2012,09,17,00,50,18.60
2012,09,17,00,51,18.50
2012,09,17,00,52,18.50
2012,09,17,00,53,18.50
2012,09,17,00,54,18.40
2012,09,17,00,55,18.40
2012,09,17,00,56,18.40
2012,09,17,00,57,18.30
2012,09,17,00,58,18.30
2012,09,17,00,59,18.30
2012,09,17,01,00,18.30
2012,09,17,01,01,18.30
2012,09,17,01,02,18.30
2012,09,17,01,03,18.30
2012,09,17,01,04,18.30
2012,09,17,01,05,18.30
2012,09,17,01,06,18.30
2012,09,17,01,07,18.30
2012,09,17,01,08,18.30
2012,09,17,01,09,18.30
2012,09,17,01,10,18.30
2012,09,17,01,11,18.30
2012,09,17,01,12,18.30
2012,09,17,01,13,18.30
2012,09,17,01,14,18.30
2012,09,17,01,15,18.30
2012,09,17,01,16,18.20
2012,09,17,01,17,18.20
2012,09,17,01,18,18.20
2012,09,17,01,19,18.20
2012,09,17,01,20,18.20
2012,09,17,01,21,18.20
2012,09,17,01,22,18.20
2012,09,17,01,23,18.20
2012,09,17,01,24,18.20
2012,09,17,01,25,18.20
2012,09,17,01,26,18.20
2012,09,17,01,27,18.20
2012,09,17,01,28,18.20
2012,09,17,01,29,18.20
2012,09,17,01,30,18.30
2012,09,17,01,31,18.30
2012,09,17,01,32,18.30
2012,09,17,01,33,18.30
2012,09,17,01,34,18.30
2012,09,17,01,35,18.30
2012,09,17,01,36,18.40
2012,09,17,01,37,18.40
2012,09,17,01,38,18.40
2012,09,17,01,39,18.40
2012,09,17,01,40,18.40
2012,09,17,01,41,18.40
2012,09,17,01,42,18.40
2012,09,17,01,43,18.40
2012,09,17,01,44,18.40
2012,09,17,01,45,18.40
2012,09,17,01,46,18.40
2012,09,17,01,47,18.40
2012,09,17,01,48,18.40
2012,09,17,01,49,18.40
2012,09,17,01,50,18.40
2012,09,17,01,51,18.40
2012,09,17,01,52,18.40
2012,09,17,01,53,18.40
2012,09,17,01,54,18.40
2012,09,17,01,55,18.40
2012,09,17,01,56,18.40
2012,09,17,01,57,18.40
2012,09,17,01,58,18.40
2012,09,17,01,59,18.40
2012,09,17,02,00,18.40
2012,09,17,02,01,18.50
2012,09,17,02,02,18.50
2012,09,17,02,03,18.50
2012,09,17,02,04,18.40
2012,09,17,02,05,18.40
2012,09,17,02,06,18.30
2012,09,17,02,07,18.30
2012,09,17,02,08,18.20
2012,09,17,02,09,18.20
2012,09,17,02,10,18.10
2012,09,17,02,11,18.10
2012,09,17,02,12,18.10
2012,09,17,02,13,18.10
2012,09,17,02,14,18.10
2012,09,17,02,15,18.10
2012,09,17,02,16,18.20
2012,09,17,02,17,18.20
2012,09,17,02,18,18.20
2012,09,17,02,19,18.30
2012,09,17,02,20,18.30
2012,09,17,02,21,18.30
2012,09,17,02,22,18.30
2012,09,17,02,23,18.30
2012,09,17,02,24,18.20
2012,09,17,02,25,18.20
2012,09,17,02,26,18.20
2012,09,17,02,27,18.20
2012,09,17,02,28,18.10
2012,09,17,02,29,18.10
2012,09,17,02,30,18.10
2012,09,17,02,31,18.10
2012,09,17,02,32,18.00
2012,09,17,02,33,18.00
2012,09,17,02,34,17.90
2012,09,17,02,35,17.90
2012,09,17,02,36,17.90
2012,09,17,02,37,17.80
2012,09,17,02,38,17.80
2012,09,17,02,39,17.80
2012,09,17,02,40,17.80
2012,09,17,02,41,17.70
2012,09,17,02,42,17.70
2012,09,17,02,43,17.70
2012,09,17,02,44,17.70
2012,09,17,02,45,17.60
2012,09,17,02,46,17.60
2012,09,17,02,47,17.50
2012,09,17,02,48,17.50
2012,09,17,02,49,17.40
2012,09,17,02,50,17.40
2012,09,17,02,51,17.40
2012,09,17,02,52,17.30
2012,09,17,02,53,17.30
2012,09,17,02,54,17.30
2012,09,17,02,55,17.30
2012,09,17,02,56,17.30
2012,09,17,02,57,17.20
2012,09,17,02,58,17.20
2012,09,17,02,59,17.20
2012,09,17,03,00,17.20
2012,09,17,03,01,17.20
2012,09,17,03,02,17.20
2012,09,17,03,03,17.20
2012,09,17,03,04,17.20
2012,09,17,03,05,17.20
2012,09,17,03,06,17.10
2012,09,17,03,07,17.10
2012,09,17,03,08,17.10
2012,09,17,03,09,17.10
2012,09,17,03,10,17.10
2012,09,17,03,11,17.10
2012,09,17,03,12,17.00
2012,09,17,03,13,17.00
2012,09,17,03,14,17.00
2012,09,17,03,15,16.90
2012,09,17,03,16,16.90
2012,09,17,03,17,16.90
2012,09,17,03,18,16.90
2012,09,17,03,19,16.90
2012,09,17,03,20,17.00
2012,09,17,03,21,17.00
2012,09,17,03,22,17.00
2012,09,17,03,23,17.00
2012,09,17,03,24,17.00
2012,09,17,03,25,17.00
2012,09,17,03,26,17.00
2012,09,17,03,27,16.90
2012,09,17,03,28,16.90
2012,09,17,03,29,16.90
2012,09,17,03,30,16.90
2012,09,17,03,31,16.90
2012,09,17,03,32,16.90
2012,09,17,03,33,16.90
2012,09,17,03,34,16.90
2012,09,17,03,35,16.90
2012,09,17,03,36,16.90
2012,09,17,03,37,16.90
2012,09,17,03,38,16.90
2012,09,17,03,39,16.90
2012,09,17,03,40,17.00
2012,09,17,03,41,17.00
2012,09,17,03,42,17.00
2012,09,17,03,43,17.10
2012,09,17,03,44,17.10
2012,09,17,03,45,17.00
2012,09,17,03,46,17.00
2012,09,17,03,47,17.00
2012,09,17,03,48,17.00
2012,09,17,03,49,16.90
2012,09,17,03,50,16.90
2012,09,17,03,51,16.90
2012,09,17,03,52,16.90
2012,09,17,03,53,16.90
2012,09,17,03,54,17.00
2012,09,17,03,55,17.00
2012,09,17,03,56,17.00
2012,09,17,03,57,17.10
2012,09,17,03,58,17.10
2012,09,17,03,59,17.10
2012,09,17,04,00,17.10
2012,09,17,04,01,17.10
2012,09,17,04,02,17.10
2012,09,17,04,03,17.00
2012,09,17,04,04,17.00
2012,09,17,04,05,17.00
2012,09,17,04,06,16.90
2012,09,17,04,07,16.90
2012,09,17,04,08,16.90
2012,09,17,04,09,16.90
2012,09,17,04,10,16.80
2012,09,17,04,11,16.80
2012,09,17,04,12,16.80
2012,09,17,04,13,16.80
2012,09,17,04,14,16.80
2012,09,17,04,15,16.80
2012,09,17,04,16,16.80
2012,09,17,04,17,16.80
2012,09,17,04,18,16.80
2012,09,17,04,19,16.80
2012,09,17,04,20,16.80
2012,09,17,04,21,16.80
2012,09,17,04,22,16.80
2012,09,17,04,23,16.80
2012,09,17,04,24,16.80
2012,09,17,04,25,16.80
2012,09,17,04,26,16.70
2012,09,17,04,27,16.70
2012,09,17,04,28,16.70
2012,09,17,04,29,16.70
2012,09,17,04,30,16.60
2012,09,17,04,31,16.60
2012,09,17,04,32,16.60
2012,09,17,04,33,16.50
2012,09,17,04,34,16.40
2012,09,17,04,35,16.40
2012,09,17,04,36,16.30
2012,09,17,04,37,16.30
2012,09,17,04,38,16.30
2012,09,17,04,39,16.20
2012,09,17,04,40,16.20
2012,09,17,04,41,16.10
2012,09,17,04,42,16.10
2012,09,17,04,43,16.00
2012,09,17,04,44,16.00
2012,09,17,04,45,15.90
2012,09,17,04,46,15.90
2012,09,17,04,47,15.90
2012,09,17,04,48,15.90
2012,09,17,04,49,15.90
2012,09,17,04,50,15.90
2012,09,17,04,51,15.80
2012,09,17,04,52,15.80
2012,09,17,04,53,15.80
2012,09,17,04,54,15.80
2012,09,17,04,55,15.80
2012,09,17,04,56,15.80
2012,09,17,04,57,15.90
2012,09,17,04,58,15.90
2012,09,17,04,59,15.90
2012,09,17,05,00,15.90
2012,09,17,05,01,15.90
2012,09,17,05,02,15.90
2012,09,17,05,03,15.90
2012,09,17,05,04,15.90
2012,09,17,05,05,15.90
2012,09,17,05,06,15.90
2012,09,17,05,07,15.80
2012,09,17,05,08,15.80
2012,09,17,05,09,15.80
2012,09,17,05,10,15.90
2012,09,17,05,11,15.90
2012,09,17,05,12,15.90
2012,09,17,05,13,15.90
2012,09,17,05,14,15.90
2012,09,17,05,15,15.90
2012,09,17,05,16,15.90
2012,09,17,05,17,15.90
2012,09,17,05,18,15.90
2012,09,17,05,19,15.90
2012,09,17,05,20,15.90
2012,09,17,05,21,15.80
2012,09,17,05,22,15.80
2012,09,17,05,23,15.80
2012,09,17,05,24,15.80
2012,09,17,05,25,15.80
2012,09,17,05,26,15.80
2012,09,17,05,27,15.80
2012,09,17,05,28,15.80
2012,09,17,05,29,15.80
2012,09,17,05,30,15.90
2012,09,17,05,31,15.90
2012,09,17,05,32,15.90
2012,09,17,05,33,15.90
2012,09,17,05,34,16.00
2012,09,17,05,35,16.00
2012,09,17,05,36,16.10
2012,09,17,05,37,16.10
2012,09,17,05,38,16.10
2012,09,17,05,39,16.10
2012,09,17,05,40,16.10
2012,09,17,05,41,16.10
2012,09,17,05,42,16.10
2012,09,17,05,43,16.10
2012,09,17,05,44,16.10
2012,09,17,05,45,16.10
2012,09,17,05,46,16.00
2012,09,17,05,47,16.00
2012,09,17,05,48,16.00
2012,09,17,05,49,16.00
2012,09,17,05,50,15.90
2012,09,17,05,51,15.90
2012,09,17,05,52,15.80
2012,09,17,05,53,15.80
2012,09,17,05,54,15.70
2012,09,17,05,55,15.70
2012,09,17,05,56,15.70
2012,09,17,05,57,15.60
2012,09,17,05,58,15.60
2012,09,17,05,59,15.60
2012,09,17,06,00,15.60
2012,09,17,06,01,15.60
2012,09,17,06,02,15.60
2012,09,17,06,03,15.60
2012,09,17,06,04,15.60
2012,09,17,06,05,15.60
2012,09,17,06,06,15.50
2012,09,17,06,07,15.50
2012,09,17,06,08,15.50
2012,09,17,06,09,15.40
2012,09,17,06,10,15.40
2012,09,17,06,11,15.40
2012,09,17,06,12,15.40
2012,09,17,06,13,15.30
2012,09,17,06,14,15.30
2012,09,17,06,15,15.30
2012,09,17,06,16,15.30
2012,09,17,06,17,15.30
2012,09,17,06,18,15.40
2012,09,17,06,19,15.40
2012,09,17,06,20,15.50
2012,09,17,06,21,15.50
2012,09,17,06,22,15.50
2012,09,17,06,23,15.50
2012,09,17,06,24,15.60
2012,09,17,06,25,15.60
2012,09,17,06,26,15.50
2012,09,17,06,27,15.50
2012,09,17,06,28,15.50
2012,09,17,06,29,15.60
2012,09,17,06,30,15.60
2012,09,17,06,31,15.60
2012,09,17,06,32,15.60
2012,09,17,06,33,15.60
2012,09,17,06,34,15.60
2012,09,17,06,35,15.60
2012,09,17,06,36,15.60
2012,09,17,06,37,15.70
2012,09,17,06,38,15.70
2012,09,17,06,39,15.60
2012,09,17,06,40,15.60
2012,09,17,06,41,15.60
2012,09,17,06,42,15.60
2012,09,17,06,43,15.60
2012,09,17,06,44,15.60
2012,09,17,06,45,15.60
2012,09,17,06,46,15.50
2012,09,17,06,47,15.50
2012,09,17,06,48,15.40
2012,09,17,06,49,15.40
2012,09,17,06,50,15.40
2012,09,17,06,51,15.40
2012,09,17,06,52,15.40
2012,09,17,06,53,15.40
2012,09,17,06,54,15.40
2012,09,17,06,55,15.40
2012,09,17,06,56,15.40
2012,09,17,06,57,15.30
2012,09,17,06,58,15.30
2012,09,17,06,59,15.40
2012,09,17,07,00,15.40
2012,09,17,07,01,15.40
2012,09,17,07,02,15.50
2012,09,17,07,03,15.50
2012,09,17,07,04,15.60
2012,09,17,07,05,15.70
2012,09,17,07,06,15.80
2012,09,17,07,07,15.80
2012,09,17,07,08,15.90
2012,09,17,07,09,15.90
2012,09,17,07,10,15.80
2012,09,17,07,11,15.80
2012,09,17,07,12,15.80
2012,09,17,07,13,15.70
2012,09,17,07,14,15.70
2012,09,17,07,15,15.60
2012,09,17,07,16,15.60
2012,09,17,07,17,15.70
2012,09,17,07,18,15.70
2012,09,17,07,19,15.70
2012,09,17,07,20,15.70
2012,09,17,07,21,15.70
2012,09,17,07,22,15.80
2012,09,17,07,23,15.90
2012,09,17,07,24,16.10
2012,09,17,07,25,16.20
2012,09,17,07,26,16.30
2012,09,17,07,27,16.50
2012,09,17,07,28,16.50
2012,09,17,07,29,16.60
2012,09,17,07,30,16.70
2012,09,17,07,31,16.70
2012,09,17,07,32,16.80
2012,09,17,07,33,16.80
2012,09,17,07,34,16.70
2012,09,17,07,35,16.70
2012,09,17,07,36,16.60
2012,09,17,07,37,16.60
2012,09,17,07,38,16.60
2012,09,17,07,39,16.50
2012,09,17,07,40,16.50
2012,09,17,07,41,16.50
2012,09,17,07,42,16.50
2012,09,17,07,43,16.50
2012,09,17,07,44,16.50
2012,09,17,07,45,16.50
2012,09,17,07,46,16.50
2012,09,17,07,47,16.50
2012,09,17,07,48,16.50
2012,09,17,07,49,16.50
2012,09,17,07,50,16.50
2012,09,17,07,51,16.60
2012,09,17,07,52,16.60
2012,09,17,07,53,16.60
2012,09,17,07,54,16.70
2012,09,17,07,55,16.70
2012,09,17,07,56,16.80
2012,09,17,07,57,16.80
2012,09,17,07,58,16.90
2012,09,17,07,59,16.90
2012,09,17,08,00,16.80
2012,09,17,08,01,16.80
2012,09,17,08,02,16.80
2012,09,17,08,03,16.70
2012,09,17,08,04,16.70
2012,09,17,08,05,16.70
2012,09,17,08,06,16.70
2012,09,17,08,07,16.60
2012,09,17,08,08,16.70
2012,09,17,08,09,16.70
2012,09,17,08,10,16.70
2012,09,17,08,11,16.70
2012,09,17,08,12,16.70
2012,09,17,08,13,16.80
2012,09,17,08,14,16.80
2012,09,17,08,15,16.80
2012,09,17,08,16,16.90
2012,09,17,08,17,16.90
2012,09,17,08,18,16.90
2012,09,17,08,19,16.90
2012,09,17,08,20,17.00
2012,09,17,08,21,17.00
2012,09,17,08,22,17.00
2012,09,17,08,23,17.10
2012,09,17,08,24,17.10
2012,09,17,08,25,17.20
2012,09,17,08,26,17.20
2012,09,17,08,27,17.30
2012,09,17,08,28,17.30
2012,09,17,08,29,17.30
2012,09,17,08,30,17.30
2012,09,17,08,31,17.30
2012,09,17,08,32,17.40
2012,09,17,08,33,17.40
2012,09,17,08,34,17.40
2012,09,17,08,35,17.40
2012,09,17,08,36,17.40
2012,09,17,08,37,17.40
2012,09,17,08,38,17.40
2012,09,17,08,39,17.40
2012,09,17,08,40,17.40
2012,09,17,08,41,17.50
2012,09,17,08,42,17.50
2012,09,17,08,43,17.50
2012,09,17,08,44,17.50
2012,09,17,08,45,17.50
2012,09,17,08,46,17.50
2012,09,17,08,47,17.50
2012,09,17,08,48,17.50
2012,09,17,08,49,17.60
2012,09,17,08,50,17.60
2012,09,17,08,51,17.60
2012,09,17,08,52,17.60
2012,09,17,08,53,17.60
2012,09,17,08,54,17.70
2012,09,17,08,55,17.80
2012,09,17,08,56,17.90
2012,09,17,08,57,17.90
2012,09,17,08,58,18.00
2012,09,17,08,59,18.10
2012,09,17,09,00,18.20
2012,09,17,09,01,18.30
2012,09,17,09,02,18.30
2012,09,17,09,03,18.40
2012,09,17,09,04,18.50
2012,09,17,09,05,18.60
2012,09,17,09,06,18.70
2012,09,17,09,07,18.80
2012,09,17,09,08,18.90
2012,09,17,09,09,18.90
2012,09,17,09,10,18.90
2012,09,17,09,11,19.00
2012,09,17,09,12,19.00
2012,09,17,09,13,19.10
2012,09,17,09,14,19.10
2012,09,17,09,15,19.10
2012,09,17,09,16,19.20
2012,09,17,09,17,19.30
2012,09,17,09,18,19.30
2012,09,17,09,19,19.40
2012,09,17,09,20,19.40
2012,09,17,09,21,19.40
2012,09,17,09,22,19.40
2012,09,17,09,23,19.40
2012,09,17,09,24,19.40
2012,09,17,09,25,19.40
2012,09,17,09,26,19.40
2012,09,17,09,27,19.50
2012,09,17,09,28,19.50
2012,09,17,09,29,19.60
2012,09,17,09,30,19.70
2012,09,17,09,31,19.80
2012,09,17,09,32,19.90
2012,09,17,09,33,20.00
2012,09,17,09,34,20.20
2012,09,17,09,35,20.30
2012,09,17,09,36,20.30
2012,09,17,09,37,20.40
2012,09,17,09,38,20.50
2012,09,17,09,39,20.60
2012,09,17,09,40,20.70
2012,09,17,09,41,20.80
2012,09,17,09,42,20.90
2012,09,17,09,43,21.00
2012,09,17,09,44,21.10
2012,09,17,09,45,21.10
2012,09,17,09,46,21.10
2012,09,17,09,47,21.10
2012,09,17,09,48,21.10
2012,09,17,09,49,21.10
2012,09,17,09,50,21.10
2012,09,17,09,51,21.00
2012,09,17,09,52,20.90
2012,09,17,09,53,20.80
2012,09,17,09,54,20.70
2012,09,17,09,55,20.60
2012,09,17,09,56,20.60
2012,09,17,09,57,20.60
2012,09,17,09,58,20.60
2012,09,17,09,59,20.70
2012,09,17,10,00,20.70
2012,09,17,10,01,20.80
2012,09,17,10,02,20.90
2012,09,17,10,03,21.00
2012,09,17,10,04,21.00
2012,09,17,10,05,21.00
2012,09,17,10,06,20.90
2012,09,17,10,07,21.00
2012,09,17,10,08,21.10
2012,09,17,10,09,21.20
2012,09,17,10,10,21.30
2012,09,17,10,11,21.30
2012,09,17,10,12,21.40
2012,09,17,10,13,21.40
2012,09,17,10,14,21.40
2012,09,17,10,15,21.50
2012,09,17,10,16,21.50
2012,09,17,10,17,21.60
2012,09,17,10,18,21.60
2012,09,17,10,19,21.60
2012,09,17,10,20,21.70
2012,09,17,10,21,21.80
2012,09,17,10,22,21.80
2012,09,17,10,23,21.90
2012,09,17,10,24,22.00
2012,09,17,10,25,22.10
2012,09,17,10,26,22.00
2012,09,17,10,27,22.00
2012,09,17,10,28,21.90
2012,09,17,10,29,21.80
2012,09,17,10,30,21.80
2012,09,17,10,31,21.70
2012,09,17,10,32,21.60
2012,09,17,10,33,21.60
2012,09,17,10,34,21.50
2012,09,17,10,35,21.60
2012,09,17,10,36,21.60
2012,09,17,10,37,21.70
2012,09,17,10,38,21.70
2012,09,17,10,39,21.70
2012,09,17,10,40,21.70
2012,09,17,10,41,21.70
2012,09,17,10,42,21.70
2012,09,17,10,43,21.70
2012,09,17,10,44,21.70
2012,09,17,10,45,21.70
2012,09,17,10,46,21.70
2012,09,17,10,47,21.60
2012,09,17,10,48,21.60
2012,09,17,10,49,21.60
2012,09,17,10,50,21.60
2012,09,17,10,51,21.60
2012,09,17,10,52,21.70
2012,09,17,10,53,21.70
2012,09,17,10,54,21.80
2012,09,17,10,55,21.80
2012,09,17,10,56,21.80
2012,09,17,10,57,21.80
2012,09,17,10,58,21.80
2012,09,17,10,59,21.90
2012,09,17,11,00,21.90
2012,09,17,11,01,22.00
2012,09,17,11,02,22.00
2012,09,17,11,03,22.10
2012,09,17,11,04,22.10
2012,09,17,11,05,22.20
2012,09,17,11,06,22.30
2012,09,17,11,07,22.40
2012,09,17,11,08,22.50
2012,09,17,11,09,22.50
2012,09,17,11,10,22.60
2012,09,17,11,11,22.60
2012,09,17,11,12,22.60
2012,09,17,11,13,22.60
2012,09,17,11,14,22.60
2012,09,17,11,15,22.60
2012,09,17,11,16,22.70
2012,09,17,11,17,22.70
2012,09,17,11,18,22.70
2012,09,17,11,19,22.80
2012,09,17,11,20,22.90
2012,09,17,11,21,23.10
2012,09,17,11,22,23.20
2012,09,17,11,23,23.20
2012,09,17,11,24,23.40
2012,09,17,11,25,23.50
2012,09,17,11,26,23.60
2012,09,17,11,27,23.70
2012,09,17,11,28,23.70
2012,09,17,11,29,23.70
2012,09,17,11,30,23.70
2012,09,17,11,31,23.60
2012,09,17,11,32,23.50
2012,09,17,11,33,23.40
2012,09,17,11,34,23.30
2012,09,17,11,35,23.30
2012,09,17,11,36,23.40
2012,09,17,11,37,23.40
2012,09,17,11,38,23.40
2012,09,17,11,39,23.50
2012,09,17,11,40,23.60
2012,09,17,11,41,23.70
2012,09,17,11,42,23.80
2012,09,17,11,43,23.80
2012,09,17,11,44,23.90
2012,09,17,11,45,23.90
2012,09,17,11,46,23.90
2012,09,17,11,47,24.00
2012,09,17,11,48,24.10
2012,09,17,11,49,24.10
2012,09,17,11,50,24.00
2012,09,17,11,51,24.10
2012,09,17,11,52,24.00
2012,09,17,11,53,24.00
2012,09,17,11,54,23.90
2012,09,17,11,55,24.00
2012,09,17,11,56,24.00
2012,09,17,11,57,24.10
2012,09,17,11,58,24.20
2012,09,17,11,59,24.30
2012,09,17,12,00,24.30
2012,09,17,12,01,24.40
2012,09,17,12,02,24.40
2012,09,17,12,03,24.40
2012,09,17,12,04,24.40
2012,09,17,12,05,24.40
2012,09,17,12,06,24.40
2012,09,17,12,07,24.40
2012,09,17,12,08,24.50
2012,09,17,12,09,24.50
2012,09,17,12,10,24.50
2012,09,17,12,11,24.50
2012,09,17,12,12,24.50
2012,09,17,12,13,24.40
2012,09,17,12,14,24.40
2012,09,17,12,15,24.50
2012,09,17,12,16,24.50
2012,09,17,12,17,24.50
2012,09,17,12,18,24.50
2012,09,17,12,19,24.60
2012,09,17,12,20,24.60
2012,09,17,12,21,24.60
2012,09,17,12,22,24.60
2012,09,17,12,23,24.60
2012,09,17,12,24,24.60
2012,09,17,12,25,24.60
2012,09,17,12,26,24.60
2012,09,17,12,27,24.60
2012,09,17,12,28,24.60
2012,09,17,12,29,24.60
2012,09,17,12,30,24.60
2012,09,17,12,31,24.60
2012,09,17,12,32,24.60
2012,09,17,12,33,24.70
2012,09,17,12,34,24.70
2012,09,17,12,35,24.70
2012,09,17,12,36,24.70
2012,09,17,12,37,24.80
2012,09,17,12,38,24.80
2012,09,17,12,39,24.80
2012,09,17,12,40,24.80
2012,09,17,12,41,24.90
2012,09,17,12,42,25.00
2012,09,17,12,43,25.00
2012,09,17,12,44,25.00
2012,09,17,12,45,25.10
2012,09,17,12,46,25.10
2012,09,17,12,47,25.10
2012,09,17,12,48,25.20
2012,09,17,12,49,25.30
2012,09,17,12,50,25.30
2012,09,17,12,51,25.30
2012,09,17,12,52,25.30
2012,09,17,12,53,25.30
2012,09,17,12,54,25.30
2012,09,17,12,55,25.30
2012,09,17,12,56,25.30
2012,09,17,12,57,25.40
2012,09,17,12,58,25.40
2012,09,17,12,59,25.40
2012,09,17,13,00,25.50
2012,09,17,13,01,25.60
2012,09,17,13,02,25.50
2012,09,17,13,03,25.50
2012,09,17,13,04,25.60
2012,09,17,13,05,25.60
2012,09,17,13,06,25.60
2012,09,17,13,07,25.60
2012,09,17,13,08,25.60
2012,09,17,13,09,25.60
2012,09,17,13,10,25.60
2012,09,17,13,11,25.70
2012,09,17,13,12,25.70
2012,09,17,13,13,25.70
2012,09,17,13,14,25.70
2012,09,17,13,15,25.70
2012,09,17,13,16,25.70
2012,09,17,13,17,25.70
2012,09,17,13,18,25.80
2012,09,17,13,19,25.80
2012,09,17,13,20,25.90
2012,09,17,13,21,25.90
2012,09,17,13,22,25.90
2012,09,17,13,23,25.90
2012,09,17,13,24,25.90
2012,09,17,13,25,25.90
2012,09,17,13,26,26.00
2012,09,17,13,27,25.90
2012,09,17,13,28,25.90
2012,09,17,13,29,25.90
2012,09,17,13,30,25.80
2012,09,17,13,31,25.80
2012,09,17,13,32,25.70
2012,09,17,13,33,25.70
2012,09,17,13,34,25.70
2012,09,17,13,35,25.80
2012,09,17,13,36,25.80
2012,09,17,13,37,25.80
2012,09,17,13,38,25.80
2012,09,17,13,39,25.90
2012,09,17,13,40,25.90
2012,09,17,13,41,25.90
2012,09,17,13,42,26.00
2012,09,17,13,43,25.90
2012,09,17,13,44,25.90
2012,09,17,13,45,26.00
2012,09,17,13,46,26.00
2012,09,17,13,47,26.00
2012,09,17,13,48,26.00
2012,09,17,13,49,26.00
2012,09,17,13,50,26.10
2012,09,17,13,51,26.10
2012,09,17,13,52,26.20
2012,09,17,13,53,26.20
2012,09,17,13,54,26.30
2012,09,17,13,55,26.30
2012,09,17,13,56,26.30
2012,09,17,13,57,26.20
2012,09,17,13,58,26.20
2012,09,17,13,59,26.30
2012,09,17,14,00,26.20
2012,09,17,14,01,26.20
2012,09,17,14,02,26.20
2012,09,17,14,03,26.30
2012,09,17,14,04,26.30
2012,09,17,14,05,26.30
2012,09,17,14,06,26.30
2012,09,17,14,07,26.40
2012,09,17,14,08,26.50
2012,09,17,14,09,26.60
2012,09,17,14,10,26.60
2012,09,17,14,11,26.60
2012,09,17,14,12,26.40
2012,09,17,14,13,26.20
2012,09,17,14,14,26.10
2012,09,17,14,15,26.10
2012,09,17,14,16,26.10
2012,09,17,14,17,26.20
2012,09,17,14,18,26.20
2012,09,17,14,19,26.20
2012,09,17,14,20,26.20
2012,09,17,14,21,26.20
2012,09,17,14,22,26.20
2012,09,17,14,23,26.30
2012,09,17,14,24,26.40
2012,09,17,14,25,26.40
2012,09,17,14,26,26.50
2012,09,17,14,27,26.60
2012,09,17,14,28,26.70
2012,09,17,14,29,26.60
2012,09,17,14,30,26.60
2012,09,17,14,31,26.70
2012,09,17,14,32,26.70
2012,09,17,14,33,26.80
2012,09,17,14,34,26.80
2012,09,17,14,35,26.80
2012,09,17,14,36,26.90
2012,09,17,14,37,26.90
2012,09,17,14,38,27.00
2012,09,17,14,39,27.00
2012,09,17,14,40,26.90
2012,09,17,14,41,26.90
2012,09,17,14,42,27.00
2012,09,17,14,43,27.00
2012,09,17,14,44,27.00
2012,09,17,14,45,27.00
2012,09,17,14,46,26.90
2012,09,17,14,47,26.90
2012,09,17,14,48,26.80
2012,09,17,14,49,26.70
2012,09,17,14,50,26.70
2012,09,17,14,51,26.70
2012,09,17,14,52,26.70
2012,09,17,14,53,26.80
2012,09,17,14,54,26.80
2012,09,17,14,55,26.80
2012,09,17,14,56,26.80
2012,09,17,14,57,26.90
2012,09,17,14,58,26.90
2012,09,17,14,59,26.90
2012,09,17,15,00,26.80
2012,09,17,15,01,26.80
2012,09,17,15,02,26.80
2012,09,17,15,03,26.70
2012,09,17,15,04,26.70
2012,09,17,15,05,26.70
2012,09,17,15,06,26.70
2012,09,17,15,07,26.80
2012,09,17,15,08,26.90
2012,09,17,15,09,27.00
2012,09,17,15,10,27.00
2012,09,17,15,11,27.10
2012,09,17,15,12,27.10
2012,09,17,15,13,27.10
2012,09,17,15,14,27.10
2012,09,17,15,15,27.10
2012,09,17,15,16,27.10
2012,09,17,15,17,27.10
2012,09,17,15,18,27.10
2012,09,17,15,19,27.00
2012,09,17,15,20,26.90
2012,09,17,15,21,26.90
2012,09,17,15,22,26.90
2012,09,17,15,23,26.90
2012,09,17,15,24,26.90
2012,09,17,15,25,27.00
2012,09,17,15,26,27.00
2012,09,17,15,27,27.00
2012,09,17,15,28,27.00
2012,09,17,15,29,27.10
2012,09,17,15,30,27.10
2012,09,17,15,31,27.00
2012,09,17,15,32,26.80
2012,09,17,15,33,26.80
2012,09,17,15,34,26.80
2012,09,17,15,35,26.80
2012,09,17,15,36,26.80
2012,09,17,15,37,26.80
2012,09,17,15,38,26.80
2012,09,17,15,39,26.80
2012,09,17,15,40,26.90
2012,09,17,15,41,26.80
2012,09,17,15,42,26.80
2012,09,17,15,43,26.70
2012,09,17,15,44,26.70
2012,09,17,15,45,26.70
2012,09,17,15,46,26.80
2012,09,17,15,47,26.80
2012,09,17,15,48,26.90
2012,09,17,15,49,26.90
2012,09,17,15,50,27.00
2012,09,17,15,51,27.10
2012,09,17,15,52,27.10
2012,09,17,15,53,27.10
2012,09,17,15,54,27.10
2012,09,17,15,55,27.10
2012,09,17,15,56,27.00
2012,09,17,15,57,27.00
2012,09,17,15,58,27.00
2012,09,17,15,59,27.10
2012,09,17,16,00,27.10
2012,09,17,16,01,27.20
2012,09,17,16,02,27.20
2012,09,17,16,03,27.20
2012,09,17,16,04,27.20
2012,09,17,16,05,27.20
2012,09,17,16,06,27.20
2012,09,17,16,07,27.20
2012,09,17,16,08,27.30
2012,09,17,16,09,27.40
2012,09,17,16,10,27.40
2012,09,17,16,11,27.50
2012,09,17,16,12,27.50
2012,09,17,16,13,27.40
2012,09,17,16,14,27.30
2012,09,17,16,15,27.30
2012,09,17,16,16,27.30
2012,09,17,16,17,27.20
2012,09,17,16,18,27.20
2012,09,17,16,19,27.20
2012,09,17,16,20,27.20
2012,09,17,16,21,27.20
2012,09,17,16,22,27.10
2012,09,17,16,23,27.10
2012,09,17,16,24,27.10
2012,09,17,16,25,27.10
2012,09,17,16,26,27.10
2012,09,17,16,27,27.10
2012,09,17,16,28,27.10
2012,09,17,16,29,27.10
2012,09,17,16,30,27.10
2012,09,17,16,31,27.10
2012,09,17,16,32,27.10
2012,09,17,16,33,27.10
2012,09,17,16,34,27.10
2012,09,17,16,35,27.00
2012,09,17,16,36,27.00
2012,09,17,16,37,27.00
2012,09,17,16,38,27.00
2012,09,17,16,39,26.90
2012,09,17,16,40,26.90
2012,09,17,16,41,26.90
2012,09,17,16,42,26.90
2012,09,17,16,43,26.90
2012,09,17,16,44,26.90
2012,09,17,16,45,26.90
2012,09,17,16,46,26.80
2012,09,17,16,47,26.80
2012,09,17,16,48,26.80
2012,09,17,16,49,26.80
2012,09,17,16,50,26.80
2012,09,17,16,51,26.80
2012,09,17,16,52,26.80
2012,09,17,16,53,26.80
2012,09,17,16,54,26.80
2012,09,17,16,55,26.80
2012,09,17,16,56,26.80
2012,09,17,16,57,26.80
2012,09,17,16,58,26.90
2012,09,17,16,59,26.90
2012,09,17,17,00,26.90
2012,09,17,17,01,26.90
2012,09,17,17,02,26.90
2012,09,17,17,03,26.90
2012,09,17,17,04,26.90
2012,09,17,17,05,26.80
2012,09,17,17,06,26.80
2012,09,17,17,07,26.80
2012,09,17,17,08,26.80
2012,09,17,17,09,26.70
2012,09,17,17,10,26.60
2012,09,17,17,11,26.60
2012,09,17,17,12,26.50
2012,09,17,17,13,26.50
2012,09,17,17,14,26.50
2012,09,17,17,15,26.40
2012,09,17,17,16,26.40
2012,09,17,17,17,26.40
2012,09,17,17,18,26.40
2012,09,17,17,19,26.40